GFSMW_sfc_rhum_000.txt.gz
RH
18 19 23 23 23 24 22 21 23 26 23 23 23 23 24 25 26 23 27 30 26 28 32 26 29 32 34 38 37 34 36 34 43 43 59 66 86 77 79 74 62 77 85
20 22 23 26 28 24 23 20 20 23 22 19 20 22 23 21 21 24 30 30 32 30 27 30 28 32 29 34 37 39 34 31 35 42 43 66 64 73 77 75 76 69 71
20 22 24 27 29 29 27 23 20 20 22 23 21 22 24 26 23 23 23 28 34 34 37 34 34 34 34 32 37 36 38 34 30 36 45 47 65 76 60 70 84 81 82
20 22 22 25 30 30 29 26 22 20 21 26 22 28 21 20 19 24 23 26 32 36 36 38 40 44 39 39 36 28 37 38 36 29 26 46 41 43 48 55 71 90 88
22 22 22 23 24 29 32 31 24 23 22 27 30 28 30 24 25 28 34 34 34 35 35 37 43 46 43 43 46 46 41 36 36 34 32 32 33 38 48 44 44 69 81
22 22 22 24 24 31 34 34 28 24 26 29 33 36 35 32 30 30 31 28 28 28 32 32 38 41 43 44 43 46 47 46 42 37 36 33 33 31 32 44 45 43 50
23 23 22 22 24 26 32 31 28 27 26 32 34 37 38 38 35 33 29 32 29 30 30 32 36 32 35 38 39 42 43 42 41 42 37 33 32 32 31 32 34 35 38
23 24 23 24 24 27 28 28 25 28 26 33 37 38 36 30 29 32 30 30 32 33 35 37 36 36 36 38 38 37 36 39 44 46 44 37 31 29 30 30 33 37 36
25 24 23 26 27 27 29 33 29 26 28 35 39 37 36 34 30 32 35 31 34 28 32 37 40 40 42 43 44 41 42 43 49 52 51 47 42 37 34 34 34 37 39
28 27 26 27 27 28 27 33 34 28 31 34 37 34 35 33 31 35 36 37 37 35 36 39 40 40 41 42 44 43 43 44 46 43 46 47 44 38 37 35 39 39 41
29 28 27 27 27 30 32 36 33 29 33 34 39 39 32 31 33 35 36 35 37 36 38 39 41 42 42 42 44 46 46 48 47 45 47 49 46 46 41 39 38 39 39
28 27 30 30 29 31 30 33 33 30 32 34 38 36 33 35 37 36 36 38 40 41 42 42 41 40 39 40 42 46 45 47 49 47 46 45 35 48 48 43 43 40 38
28 29 32 31 28 30 31 31 32 31 32 32 34 36 38 37 37 37 38 38 41 41 39 38 39 38 40 41 43 45 48 49 50 51 50 48 47 49 47 45 43 41 34
31 36 38 30 28 30 30 29 31 34 34 32 32 37 39 40 40 40 40 43 42 41 37 38 39 43 41 41 45 46 50 53 55 62 65 63 59 62 54 45 47 42 45
40 41 37 31 27 29 29 29 30 36 36 34 34 34 41 42 40 40 43 42 40 36 36 38 40 42 43 40 49 49 55 60 63 67 66 66 67 70 70 63 60 53 55
46 42 37 30 27 27 28 33 36 41 36 36 34 37 42 39 40 41 42 39 35 34 36 39 42 47 40 57 67 66 69 70 71 76 69 66 70 69 75 75 79 85 82
53 62 37 28 26 28 37 40 42 38 38 35 36 39 40 41 41 39 34 33 35 36 38 41 47 51 52 64 66 69 74 84 80 75 73 65 54 67 62 74 78 78 80
75 62 38 29 31 39 39 46 35 34 37 36 38 37 40 40 39 35 32 33 35 38 42 50 52 54 52 69 70 73 79 88 82 79 74 74 74 70 66 67 74 73 69
67 49 47 44 48 54 60 44 33 30 34 37 37 37 40 40 35 33 36 36 40 44 50 54 58 64 70 73 74 78 91 94 88 76 76 74 78 78 76 75 79 73 78
61 63 74 82 84 70 47 34 31 30 35 37 39 39 39 36 33 33 35 37 44 50 60 66 69 73 87 80 79 86 95 99 86 81 80 79 80 82 82 82 87 91 77
64 74 78 70 57 46 35 36 30 34 38 40 41 39 35 33 32 34 36 39 54 73 90 92 92 88 89 95 82 84 99 94 89 81 78 80 83 86 90 88 89 82 67
86 89 72 54 47 47 40 32 29 34 40 41 40 38 36 32 30 36 40 50 63 81 88 91 91 84 97 91 95 90 88 95 97 92 82 87 87 94 98 97 97 88 81
86 63 57 54 49 38 33 32 40 39 43 42 41 39 36 32 33 41 54 58 55 69 82 85 84 86 84 86 84 80 83 87 94 86 85 87 87 90 97 98 98 96 88
82 54 51 41 37 36 39 36 44 46 41 44 45 42 36 39 39 43 47 56 65 74 73 81 87 88 78 84 83 81 84 84 86 87 81 91 96 99 100 97 98 97 97
64 52 45 40 34 39 40 42 43 46 45 51 50 41 41 50 51 50 56 63 68 76 91 87 89 94 92 88 94 92 87 88 86 93 95 89 86 85 88 97 95 92 93
58 50 40 36 37 38 42 45 46 47 54 57 50 52 58 59 56 58 62 63 64 69 74 81 94 93 94 95 92 86 85 86 85 84 89 93 94 86 83 92 95 98 95

GFSMW_sfc_rhum_003.txt.gz
RH
11 13 18 20 21 23 23 21 22 23 22 21 22 23 26 25 25 22 26 28 24 28 31 26 28 32 31 35 40 39 41 35 34 42 43 36 46 64 70 74 78 69 65
14 16 18 22 25 24 24 21 20 22 23 19 21 21 23 21 22 23 29 31 30 30 28 30 30 31 32 38 38 41 39 38 36 37 39 43 39 40 59 64 76 70 64
15 16 19 22 26 27 27 23 20 20 23 23 18 21 24 26 23 23 25 30 34 32 32 33 33 35 36 35 38 38 40 38 40 43 36 40 44 47 33 45 56 73 81
16 16 18 20 24 28 28 25 23 21 20 24 23 29 23 22 21 22 20 20 26 31 32 32 33 36 36 40 42 33 43 46 42 40 32 44 39 42 47 35 36 55 60
17 18 18 18 19 24 30 30 26 24 22 23 32 31 35 30 24 25 28 31 31 31 30 32 35 38 36 40 47 50 51 43 46 43 42 45 40 43 43 44 37 35 47
19 18 18 18 20 26 30 32 29 26 24 25 27 40 43 37 32 35 36 40 35 36 33 28 35 38 39 39 43 49 50 50 49 46 46 44 45 41 41 42 42 38 36
21 21 20 20 20 22 26 30 30 29 26 28 31 37 40 40 40 36 35 33 34 31 34 36 43 36 35 35 37 44 48 46 46 49 44 40 39 37 37 39 40 39 34
23 23 23 23 22 23 24 26 26 27 26 27 30 33 35 35 35 32 34 34 31 31 32 34 34 34 34 35 39 40 42 45 46 49 46 39 38 36 35 35 38 42 39
24 24 24 26 25 26 27 29 27 27 26 27 30 34 38 38 34 33 35 33 32 27 30 34 36 36 36 36 39 42 45 46 50 53 53 48 43 44 43 43 38 40 46
25 25 25 27 28 28 28 32 30 28 28 26 31 36 36 35 34 35 36 36 35 34 34 34 34 34 35 37 40 43 43 48 49 44 49 48 44 43 43 43 46 42 43
26 26 26 26 28 30 29 30 30 29 31 27 36 38 35 34 33 33 32 34 35 34 34 33 34 35 36 37 40 42 43 46 47 48 49 50 48 45 44 47 50 51 46
26 26 27 30 30 30 27 28 30 31 28 31 35 36 35 32 33 35 34 36 36 37 36 35 34 34 34 35 36 40 37 41 43 45 47 46 34 47 47 45 53 52 48
27 27 29 34 33 30 28 28 29 30 29 29 33 35 34 35 36 35 36 36 36 35 34 34 36 36 36 35 37 36 40 42 44 46 48 48 49 52 48 47 48 50 41
28 29 34 35 39 32 28 28 30 31 29 29 30 36 38 37 35 37 39 38 36 37 36 36 35 37 35 34 36 36 41 45 46 54 56 55 56 57 57 56 58 48 53
31 33 41 46 49 34 28 28 28 30 30 33 37 45 40 37 38 39 39 38 38 36 34 35 36 37 35 30 38 40 47 52 57 60 58 63 66 68 68 61 66 69 65
34 39 51 58 49 33 28 28 28 32 37 42 46 39 37 37 39 39 40 39 36 33 34 36 38 39 30 51 67 64 58 62 67 76 68 62 66 66 74 76 75 70 74
43 50 64 58 45 36 28 28 34 44 61 43 40 38 37 38 40 36 35 36 36 36 38 38 39 42 45 59 67 70 65 75 78 77 77 69 54 68 64 70 77 79 78
54 72 62 55 44 41 35 42 59 50 47 45 37 33 35 37 38 37 34 34 35 38 38 42 44 49 47 67 72 76 78 84 82 79 76 77 79 75 73 75 78 71 71
78 55 57 51 60 60 66 76 75 48 38 33 32 32 35 39 36 34 36 36 38 40 41 46 55 62 68 72 76 80 94 92 87 75 76 76 81 82 77 90 95 90 87
54 53 58 67 84 81 75 60 44 34 34 33 34 34 36 34 33 36 38 37 39 41 54 62 66 70 81 78 80 84 96 99 91 86 80 80 80 87 92 97 94 93 84
53 58 76 79 63 61 48 38 36 36 30 34 36 35 32 32 35 36 35 36 44 63 86 92 86 80 83 89 86 90 98 92 89 84 86 89 88 96 90 87 95 91 77
54 76 84 60 52 49 44 36 29 27 32 35 36 34 34 34 32 35 36 42 52 73 87 88 86 80 89 77 74 81 96 90 95 92 86 86 96 97 94 89 92 98 98
79 76 65 63 54 38 32 30 34 32 36 38 37 38 40 39 34 37 44 49 46 67 82 84 82 81 78 77 74 84 85 97 96 93 91 86 84 85 86 85 88 90 97
94 76 66 53 42 33 32 30 37 40 36 40 44 45 45 40 37 40 42 48 62 72 71 80 84 85 78 78 81 88 90 84 86 86 82 85 91 96 96 98 98 96 97
85 66 55 46 36 33 34 34 36 43 43 47 50 48 46 46 47 46 47 54 66 75 82 81 88 94 91 84 95 95 90 91 88 94 96 87 81 86 84 93 99 95 96
78 62 44 38 33 32 35 37 40 41 52 58 56 61 54 53 53 51 53 60 70 72 71 81 91 91 86 94 95 95 97 83 88 89 90 89 89 88 87 94 94 90 86

GFSMW_sfc_rhum_006.txt.gz
RH
14 18 23 28 30 36 33 32 32 38 37 42 46 46 50 48 49 46 44 49 45 47 50 53 50 53 54 57 56 60 61 66 63 64 58 57 49 54 52 81 88 87 84
16 19 24 31 35 35 35 34 33 35 36 36 40 43 46 42 41 45 51 47 51 47 46 53 49 50 56 58 62 63 64 66 62 72 63 62 50 54 52 52 73 83 90
20 20 26 33 38 40 42 35 33 33 37 39 36 41 44 46 44 44 45 51 51 53 53 52 54 54 57 61 64 63 62 66 65 61 69 65 65 57 47 54 48 60 74
20 21 28 30 36 41 44 40 38 34 33 43 37 46 39 36 35 43 39 36 52 55 50 52 54 58 59 60 64 52 71 68 68 66 53 64 62 61 61 56 55 52 50
25 25 25 26 34 37 47 46 42 41 38 42 46 43 48 45 47 49 48 46 48 45 43 46 53 58 62 64 66 67 67 69 70 66 69 66 62 60 62 62 52 54 52
28 26 27 28 29 39 43 49 47 38 41 43 47 54 52 53 54 53 55 52 51 54 54 48 57 59 60 60 62 63 62 64 64 62 60 59 60 57 57 57 53 52 49
31 32 30 30 34 38 41 47 44 40 41 49 51 51 58 59 58 57 56 52 52 49 51 51 54 54 54 55 56 58 60 60 57 54 54 50 50 50 48 48 45 46 41
32 30 31 35 35 39 40 40 36 38 38 43 47 53 54 55 56 56 54 53 51 50 47 48 51 51 52 56 58 57 57 59 61 57 57 54 52 48 45 45 50 53 48
31 29 31 36 38 40 42 47 43 38 38 45 52 53 55 55 55 52 54 53 51 38 50 52 53 55 58 59 60 60 57 57 58 60 60 58 56 60 55 50 48 52 63
31 32 32 37 38 38 39 47 50 41 39 40 48 46 51 53 50 52 51 50 50 48 51 52 53 53 54 54 57 59 58 59 60 54 58 57 55 54 54 51 52 54 60
32 33 34 35 37 40 40 40 40 39 42 44 48 56 51 52 49 47 47 47 52 49 50 50 50 48 48 49 53 54 54 54 53 54 55 54 53 54 53 54 54 55 56
30 31 32 34 39 43 45 44 43 42 42 44 51 51 50 48 50 49 49 52 52 52 52 48 45 44 44 47 49 51 47 50 51 50 52 52 41 52 53 54 55 56 53
32 34 33 39 42 47 52 50 39 41 40 38 46 49 50 49 49 54 54 50 52 51 48 44 48 47 49 47 48 47 48 49 50 51 52 52 53 56 56 56 57 57 49
34 34 38 42 46 52 53 44 36 42 39 38 40 50 48 50 54 54 54 55 53 53 50 49 48 50 45 42 43 41 46 49 49 57 61 62 64 67 66 63 64 59 66
40 49 51 46 50 54 53 42 38 39 39 39 40 49 61 59 54 54 56 55 57 50 49 47 48 50 46 37 46 52 58 60 62 64 62 64 65 66 69 67 72 70 70
56 57 49 53 55 54 52 39 37 38 40 47 66 71 63 53 53 56 57 58 55 52 49 52 52 53 39 56 69 74 70 69 70 74 71 68 67 68 70 72 73 73 78
62 57 62 63 56 54 49 46 47 65 73 77 70 65 64 51 54 50 50 57 58 56 56 55 55 55 55 64 71 73 75 78 78 78 78 73 61 70 68 72 75 77 77
66 64 62 58 55 54 60 74 74 67 68 70 70 59 48 48 50 54 54 55 55 57 55 58 59 61 58 70 72 74 76 82 84 84 81 81 81 78 77 77 84 87 82
65 63 52 56 61 67 78 85 87 85 80 57 43 40 44 47 51 51 55 57 56 55 56 60 68 70 73 73 74 77 84 95 93 85 82 81 81 78 78 88 97 94 87
56 50 56 62 69 78 75 67 64 59 44 42 41 40 45 47 47 52 56 55 57 53 69 66 76 77 78 75 77 81 92 97 94 84 89 86 94 92 89 91 96 96 90
47 53 62 72 72 62 60 55 42 42 40 39 40 43 43 42 47 53 52 51 58 70 79 91 84 79 79 81 77 75 89 96 94 93 88 82 78 81 92 97 94 93 82
55 61 69 69 62 58 65 46 34 32 37 41 44 45 46 44 41 54 51 55 63 74 88 85 85 81 81 75 72 81 88 94 97 95 93 91 91 90 94 96 94 95 98
69 69 70 67 65 55 36 36 43 34 43 46 49 52 52 51 47 52 61 64 64 75 82 87 82 82 80 80 72 74 83 93 96 94 94 94 90 87 93 92 91 88 94
77 75 75 66 54 42 34 38 43 46 42 53 59 59 62 61 56 54 60 66 74 80 86 84 87 87 85 81 82 89 94 96 92 95 95 93 97 97 97 97 98 97 97
77 76 64 62 46 37 37 37 41 49 52 66 67 66 71 66 62 63 66 74 82 82 84 87 94 96 93 89 94 97 96 96 96 97 88 91 91 89 88 91 99 98 99
74 65 60 42 37 34 36 39 47 61 75 74 74 80 76 71 70 68 69 67 72 74 74 74 91 95 87 92 94 95 97 92 91 91 95 94 92 96 95 96 98 99 98

GFSMW_sfc_rhum_009.txt.gz
RH
26 30 31 32 36 39 32 32 35 38 41 42 46 48 55 53 56 51 54 57 56 50 50 55 61 62 60 62 59 65 62 63 68 71 69 65 60 56 58 71 79 87 65
25 28 33 36 33 36 37 36 34 38 40 43 45 46 49 50 50 52 56 57 56 55 52 55 55 54 58 55 59 70 70 71 67 73 73 74 63 61 58 55 67 69 79
25 25 25 35 41 40 39 39 38 37 43 40 42 47 53 51 46 49 55 55 53 56 56 56 61 60 62 63 66 63 62 69 71 65 71 75 72 69 60 60 62 64 72
26 27 29 32 39 42 45 41 40 40 40 46 44 43 41 44 44 46 47 51 58 59 58 57 61 64 67 65 70 66 73 72 77 75 61 72 74 72 69 66 62 61 57
30 29 30 32 35 43 47 49 45 44 44 47 51 49 47 55 50 52 50 54 62 60 56 58 59 65 70 64 64 66 69 76 78 77 78 73 70 75 69 67 56 59 60
33 34 37 34 34 41 45 51 49 45 47 49 51 56 52 47 55 54 59 59 60 57 54 51 58 60 59 57 59 59 56 62 67 70 71 67 64 59 61 63 57 54 54
38 36 37 37 43 53 43 49 52 51 51 55 56 56 57 52 49 58 66 58 60 57 52 52 53 54 54 55 54 56 60 62 65 67 62 65 60 56 53 53 52 50 42
34 37 43 44 45 45 47 49 49 49 49 56 60 62 63 60 53 60 67 66 61 58 55 57 58 56 57 60 65 62 54 65 69 68 72 62 60 56 56 57 59 60 54
38 40 43 47 48 49 51 58 57 56 54 54 57 61 68 68 66 64 60 61 58 50 59 62 62 68 73 71 60 68 68 69 67 70 72 70 64 66 60 59 58 65 72
43 43 44 48 50 53 56 59 57 54 50 50 54 57 63 59 62 63 59 57 59 58 66 73 79 75 67 60 61 62 64 68 70 64 74 68 64 66 70 66 66 67 72
45 45 44 46 53 58 61 64 59 58 51 50 59 61 60 57 57 55 55 57 59 63 70 70 69 61 56 54 57 62 62 66 65 67 65 65 64 65 64 64 61 61 61
44 45 49 53 56 58 64 59 59 64 51 54 60 61 58 55 55 54 55 58 59 61 57 60 56 54 56 58 62 62 60 58 58 59 68 62 48 59 60 62 62 61 60
48 58 57 54 55 61 61 61 58 55 49 53 57 57 55 53 56 61 58 56 60 62 61 52 61 60 61 60 62 58 56 55 58 58 60 58 59 60 62 65 66 65 57
60 62 62 59 59 57 58 65 61 52 50 49 55 58 56 55 62 64 63 61 58 61 62 60 62 65 58 51 52 49 54 61 61 71 75 75 76 77 75 70 72 68 73
65 65 65 64 62 61 62 65 50 52 47 47 59 79 77 68 63 64 61 64 62 59 62 63 62 63 57 44 55 65 74 78 79 79 74 71 71 67 70 65 68 69 73
67 64 65 64 64 62 63 53 67 80 77 80 82 80 77 73 65 57 58 62 62 64 60 63 66 68 48 62 77 76 84 83 81 82 74 71 69 71 74 74 75 73 77
72 69 71 67 64 67 62 73 78 77 80 81 78 82 83 85 82 62 56 61 65 63 65 66 66 70 73 71 70 70 72 78 81 82 83 79 67 75 73 75 76 76 77
77 77 69 65 74 74 82 86 91 84 83 83 82 82 82 75 54 56 61 62 62 64 65 68 72 77 66 72 74 75 78 84 84 84 84 86 86 83 82 81 82 80 76
82 73 69 76 84 85 90 93 93 91 88 85 80 66 54 54 56 58 61 61 63 64 70 70 76 81 87 78 78 79 86 90 89 85 86 83 94 84 82 85 96 93 86
73 72 76 83 87 88 80 87 76 85 92 54 51 51 52 53 54 58 62 63 66 64 77 74 86 83 88 80 76 75 88 95 90 85 82 80 82 83 88 94 97 96 89
71 74 82 78 78 71 69 76 63 52 48 50 50 51 51 52 57 63 65 62 68 78 90 94 88 89 87 87 74 71 90 95 94 90 90 84 85 87 89 92 97 94 87
83 82 82 77 78 66 72 69 44 42 47 50 53 56 60 55 55 62 65 69 77 92 94 93 94 93 90 81 78 77 79 83 96 95 92 91 92 92 91 96 95 94 96
90 84 90 81 71 69 44 49 50 47 56 60 63 65 63 65 62 68 72 84 83 96 98 96 92 90 85 90 79 77 81 88 96 95 96 94 93 92 96 92 94 95 97
86 86 81 72 73 61 47 46 53 56 54 66 72 73 80 76 72 71 76 94 95 97 86 92 93 93 91 86 86 90 93 96 93 94 95 88 87 93 92 92 91 97 98
78 91 85 78 70 48 47 46 54 64 74 79 81 86 86 81 80 78 86 93 92 93 89 89 97 97 93 90 94 93 97 98 94 93 87 91 91 90 92 91 91 99 99
81 83 73 57 46 45 55 69 72 78 86 87 88 95 94 92 91 92 91 75 76 77 73 77 95 93 87 93 89 92 93 89 94 90 97 94 95 96 94 95 94 97 99

GFSMW_sfc_rhum_012.txt.gz
RH
36 38 37 41 41 42 39 40 37 38 49 50 51 53 56 57 59 66 68 67 64 61 59 64 68 69 66 68 67 66 68 66 72 70 71 69 67 62 53 68 76 77 71
35 35 36 40 37 37 36 37 36 40 43 46 47 47 49 53 53 57 61 69 67 63 58 61 64 66 70 68 69 71 74 73 74 73 79 74 64 65 64 60 65 73 77
31 34 36 38 41 40 40 37 38 38 44 45 47 50 56 58 56 56 59 60 63 61 61 60 66 65 69 68 64 67 68 71 77 71 73 81 80 69 62 65 65 65 74
30 28 30 39 45 41 45 45 42 42 42 48 48 48 41 41 43 47 54 58 60 59 62 63 67 68 73 71 74 71 78 78 76 80 70 78 85 83 67 67 62 62 59
34 35 37 35 34 40 45 48 46 46 46 50 55 54 51 47 44 58 54 56 62 64 64 68 69 77 77 69 62 60 60 68 73 73 77 73 77 81 77 62 47 46 55
38 37 37 40 45 45 48 50 51 49 51 53 57 61 59 52 56 58 64 66 71 73 70 62 62 63 61 61 64 61 61 63 62 63 69 72 73 62 70 66 59 54 46
39 39 39 40 46 50 50 50 53 50 50 59 62 63 66 64 62 56 59 64 65 62 63 61 65 65 70 72 74 75 76 68 68 64 61 61 64 66 66 69 66 66 56
39 44 48 50 50 50 57 53 53 55 53 59 61 65 70 76 73 69 67 72 64 65 64 69 76 77 79 82 83 86 83 77 71 65 66 66 64 63 60 64 72 76 66
51 49 50 53 56 60 62 62 62 62 56 64 65 65 67 73 78 72 71 68 63 63 74 80 85 90 88 88 87 81 72 70 70 68 70 72 69 76 71 71 70 72 83
50 50 52 56 61 64 65 69 66 59 60 66 62 59 67 69 68 67 67 69 72 76 81 87 90 92 86 75 70 72 71 72 72 70 76 72 69 69 68 67 71 71 72
55 57 56 56 53 54 57 64 70 71 73 65 60 66 60 64 64 63 68 68 74 77 83 86 80 76 76 72 71 68 68 72 71 73 71 68 68 68 72 74 69 70 72
61 64 64 63 62 64 68 68 68 72 65 58 64 68 62 62 62 65 66 67 67 70 71 72 68 69 68 65 67 71 66 70 66 67 66 63 52 63 67 73 67 66 65
69 71 70 63 69 64 68 67 73 66 56 57 65 64 62 60 63 66 66 65 64 59 63 63 65 66 67 67 68 68 65 66 62 63 66 68 71 76 79 80 83 82 67
69 71 73 71 74 69 73 72 70 65 62 57 62 66 65 64 69 68 67 65 65 65 64 65 66 70 68 62 62 60 67 74 72 77 78 76 74 74 74 72 72 68 73
72 71 74 72 75 71 74 74 69 78 75 73 79 88 80 75 71 71 74 71 62 61 66 68 67 68 64 51 69 80 83 84 83 79 76 74 73 68 72 70 73 73 75
72 63 70 75 74 72 73 70 69 74 81 83 84 83 88 82 85 83 80 70 71 64 62 64 68 69 54 69 74 78 83 73 72 79 76 73 72 73 73 77 78 77 82
73 70 76 80 77 79 73 83 90 92 83 86 86 89 91 91 87 84 74 73 66 63 63 64 68 72 74 69 68 74 76 83 84 85 85 81 70 76 76 78 80 80 80
70 71 82 80 82 82 86 90 90 93 90 91 87 85 90 90 83 70 64 63 62 62 65 69 71 75 69 73 73 77 82 88 86 86 86 86 80 77 77 80 90 82 80
77 77 86 84 86 89 89 87 90 89 90 91 88 68 62 58 61 60 62 62 65 67 68 70 80 86 87 77 76 78 87 88 92 85 83 84 84 81 76 82 95 95 90
78 81 77 82 88 88 85 85 75 67 66 57 53 52 56 57 61 65 66 65 66 66 80 83 84 81 88 81 75 75 88 96 92 87 83 80 83 83 86 95 96 96 90
79 80 83 88 88 79 72 78 52 53 51 53 56 59 60 59 65 64 64 69 75 84 93 93 91 88 86 88 77 74 93 96 94 89 86 86 84 87 92 95 97 94 85
87 84 83 93 84 68 74 52 48 46 54 59 62 63 66 64 58 67 70 72 83 94 95 95 94 94 92 84 82 75 76 81 97 95 93 94 94 80 89 91 96 95 95
92 88 93 84 74 70 57 50 54 52 61 65 70 74 75 70 66 73 80 90 88 97 96 96 95 93 91 92 82 79 82 86 96 93 90 82 80 80 86 87 88 91 92
87 80 83 85 81 73 50 52 57 59 66 74 79 83 84 77 76 79 81 96 96 95 89 95 95 96 92 87 87 94 94 91 96 93 90 89 87 91 94 96 94 97 98
83 89 94 82 59 54 58 68 70 71 75 81 86 87 86 85 86 81 90 92 91 94 96 96 97 97 93 91 95 90 96 97 94 95 96 89 89 90 90 90 92 92 97
88 81 63 56 52 52 66 71 75 78 82 82 86 97 97 96 91 96 93 79 79 74 72 77 86 90 86 92 86 90 93 86 91 91 95 97 94 94 93 94 93 92 95

GFSMW_sfc_rhum_015.txt.gz
RH
43 44 40 45 47 52 49 46 39 54 57 57 57 57 59 60 64 64 69 77 75 72 71 72 77 74 73 70 72 70 68 74 75 73 72 71 69 65 62 69 75 75 73
40 42 46 46 42 42 44 45 41 39 47 50 50 51 53 56 58 60 63 70 74 71 68 65 68 72 73 73 76 74 79 76 81 72 82 76 71 66 64 65 69 74 80
38 40 38 43 44 42 41 40 40 41 46 49 49 52 57 58 60 57 62 59 69 69 69 63 60 68 71 69 72 76 74 74 79 76 74 81 79 85 69 66 69 73 77
34 36 38 41 42 39 43 44 44 44 44 49 51 51 49 43 43 44 48 52 65 62 65 62 62 64 70 76 74 73 80 80 78 79 74 75 82 76 68 66 61 54 62
36 34 34 32 38 43 46 52 56 54 52 55 57 60 60 55 52 55 62 59 62 69 65 65 61 67 76 76 74 69 65 69 69 65 69 72 81 83 86 57 46 53 58
35 38 41 41 42 50 54 57 55 52 57 59 62 67 69 65 66 64 70 64 71 72 77 75 76 70 68 72 74 67 66 67 68 71 75 72 68 69 74 81 61 63 60
42 44 44 44 50 55 61 58 62 59 61 63 62 62 65 71 75 74 73 72 78 76 75 72 69 76 79 85 85 87 82 82 82 79 80 77 77 70 73 80 75 71 60
45 54 56 59 62 66 66 65 63 63 62 63 63 70 70 74 78 81 84 84 78 81 83 86 84 87 86 88 90 93 94 95 96 94 84 71 74 73 69 72 79 78 69
57 56 59 63 65 64 64 69 68 66 67 70 77 74 68 69 75 78 81 83 80 78 91 93 94 90 88 92 95 94 90 86 82 81 79 79 78 81 78 75 77 78 81
61 64 64 63 62 62 65 72 74 71 74 76 72 55 61 70 74 75 78 81 80 88 93 90 89 90 91 93 92 84 77 79 81 75 79 80 78 79 80 75 74 74 79
67 68 68 67 67 69 69 72 74 76 80 75 63 66 72 69 72 73 79 82 87 87 88 77 76 87 85 81 78 79 75 74 76 73 74 73 71 72 75 77 74 75 73
67 70 68 66 71 73 74 75 78 82 72 62 64 70 73 67 69 72 72 75 72 70 66 72 76 76 75 75 73 75 70 72 71 71 73 70 55 67 76 79 78 75 69
63 64 68 67 72 76 76 75 81 73 69 62 65 70 68 66 66 71 70 68 67 63 63 69 73 70 72 71 72 72 72 72 73 74 75 74 77 79 82 82 83 83 70
66 69 74 71 76 78 79 78 81 77 77 65 65 68 70 63 71 69 73 72 67 66 66 67 69 73 68 64 65 65 72 79 77 80 80 80 80 80 78 75 74 69 74
67 72 74 76 80 84 81 83 75 79 83 86 81 82 78 76 80 88 87 82 76 72 70 69 67 68 62 53 74 79 81 80 81 80 76 75 75 69 69 70 76 77 80
78 78 70 70 78 85 83 78 81 88 93 94 88 86 91 92 94 94 91 85 84 71 62 62 66 68 55 69 71 75 85 83 80 80 76 77 75 77 76 76 79 80 83
71 61 68 76 80 87 81 87 89 93 90 90 92 90 91 94 94 90 89 84 70 63 63 64 68 72 73 68 70 75 82 88 86 88 88 82 74 77 78 78 80 81 82
56 58 61 77 91 85 86 88 90 90 94 94 94 91 92 92 84 70 64 62 63 64 65 67 72 79 73 70 71 73 86 90 88 88 88 86 88 84 76 76 84 82 78
59 66 81 85 89 82 81 87 91 71 81 80 62 60 60 58 62 64 68 68 67 65 68 73 82 83 83 74 72 75 92 92 90 86 86 87 86 84 81 88 95 91 86
77 82 84 88 83 84 85 86 65 58 55 56 57 60 61 62 66 69 67 64 67 69 82 80 83 79 86 79 76 78 92 96 92 88 80 76 76 82 85 93 96 96 86
85 87 85 87 91 91 79 90 64 55 53 61 62 62 63 65 67 66 66 70 78 85 93 92 89 87 85 91 81 76 87 95 93 89 86 89 86 84 87 92 93 93 92
90 88 92 91 84 75 75 83 66 52 57 63 66 69 74 66 63 70 74 78 84 93 93 95 94 93 93 85 82 76 76 81 96 94 96 91 79 76 77 81 83 86 91
92 89 80 90 87 72 71 58 56 55 63 70 76 81 78 74 69 80 85 91 85 95 95 97 96 94 93 94 80 80 84 83 96 97 93 94 76 81 89 91 93 96 96
92 89 81 84 73 59 57 59 66 67 67 74 81 83 84 79 80 80 82 96 96 97 93 96 95 97 93 89 89 94 91 91 96 94 94 94 85 88 94 95 95 97 98
89 88 91 78 77 72 64 66 69 73 75 80 83 87 89 89 85 80 91 93 94 96 96 97 98 96 93 92 91 92 95 97 96 95 92 90 91 90 88 88 88 90 93
92 92 80 77 70 68 73 75 77 78 81 80 81 95 98 97 92 96 93 80 78 76 74 76 82 87 83 86 89 90 93 93 91 92 94 95 95 95 93 93 93 91 93

GFSMW_sfc_rhum_018.txt.gz
RH
45 50 45 45 48 56 61 59 55 60 71 67 63 62 61 62 65 66 66 75 78 80 82 78 83 85 77 72 76 75 71 78 81 74 71 72 72 72 69 70 71 69 68
47 47 51 55 52 52 56 54 47 44 59 58 56 56 57 58 62 64 63 68 78 81 77 76 72 79 76 78 77 76 80 77 83 74 80 72 69 68 69 68 67 69 77
40 44 44 49 47 47 49 46 46 44 47 51 52 52 55 57 57 54 58 56 64 67 80 73 70 70 74 70 68 71 75 69 86 80 72 84 79 80 69 69 65 71 68
40 41 41 43 44 44 46 47 48 48 47 52 55 58 58 56 53 57 57 49 60 66 69 76 74 70 70 71 74 74 79 79 82 85 76 73 77 60 54 59 65 53 55
38 36 37 38 45 52 57 60 59 60 62 64 66 69 69 72 70 69 69 66 66 69 68 70 73 78 79 77 76 78 77 71 76 64 71 72 76 77 66 68 56 55 57
40 41 44 46 52 63 66 68 65 62 64 66 67 69 77 77 76 69 79 78 82 81 80 80 86 86 82 77 71 72 71 76 76 80 80 77 79 74 78 84 73 66 58
50 58 61 63 65 60 65 63 67 64 61 63 66 76 77 77 74 69 74 81 87 83 88 86 88 89 91 91 91 87 89 90 94 93 94 93 94 96 97 98 81 76 66
63 66 66 68 60 60 65 67 65 66 64 72 77 79 71 66 65 70 80 91 88 92 93 93 94 94 95 96 95 96 97 97 98 96 96 96 91 87 82 73 79 74 66
69 68 68 67 65 62 63 71 74 74 73 79 83 76 69 68 65 72 83 88 90 87 95 94 95 94 92 90 92 95 94 94 94 93 94 91 84 83 78 75 78 78 75
67 66 66 65 67 71 73 76 76 77 77 83 76 61 66 70 75 81 82 87 89 94 94 92 89 89 86 90 93 95 92 91 88 83 83 80 78 77 79 78 79 82 80
65 69 70 72 73 74 77 80 80 81 85 78 68 71 66 70 75 76 81 87 91 93 92 84 79 79 78 88 93 88 81 78 76 74 76 76 75 79 80 83 80 79 80
66 69 73 75 77 76 75 80 82 84 85 71 70 70 74 76 73 77 79 82 78 74 71 73 73 76 80 79 78 77 75 75 73 72 74 74 57 73 78 81 82 83 78
70 68 65 70 77 77 79 84 83 87 75 79 77 76 74 73 71 75 74 72 72 73 77 74 72 71 74 73 71 69 71 72 74 77 80 79 79 79 81 79 79 77 68
62 65 77 81 79 77 79 87 86 80 82 89 91 90 86 77 78 89 90 87 83 84 82 75 74 72 66 62 63 63 72 78 78 79 79 79 78 76 74 72 73 70 75
77 80 76 62 58 63 73 89 86 83 87 94 94 92 90 91 91 91 90 87 86 79 75 66 66 67 62 52 75 77 79 78 77 79 76 74 74 67 68 69 76 79 83
86 62 52 49 50 71 86 91 85 84 89 89 90 91 91 87 94 92 92 91 90 86 66 64 68 71 57 71 71 77 86 83 83 83 78 75 72 78 76 76 77 81 84
66 59 54 65 82 89 87 86 88 90 91 94 88 94 92 92 94 92 92 92 74 66 66 66 69 71 74 69 66 68 77 86 88 90 86 80 72 77 70 72 72 74 81
73 68 81 84 80 82 83 91 90 89 86 87 77 75 77 82 75 66 64 66 67 66 66 69 74 80 69 67 69 71 83 88 88 87 85 87 87 76 77 80 91 87 80
79 85 80 84 86 88 90 93 86 71 71 74 64 63 68 64 65 67 70 66 66 68 70 74 80 80 78 72 72 77 93 93 92 85 87 88 86 76 76 85 94 90 85
81 86 88 90 89 88 94 92 85 59 62 66 67 65 67 68 72 71 70 68 72 71 82 77 79 78 85 78 79 78 91 96 93 78 76 77 81 84 85 90 96 96 93
83 87 91 93 89 93 82 84 94 68 61 63 62 68 73 72 72 73 73 77 82 85 92 93 91 87 85 92 80 74 87 94 94 91 85 87 90 81 73 75 88 90 82
85 90 94 83 93 92 74 69 74 58 58 64 70 76 79 76 68 78 81 81 85 93 94 96 95 95 94 86 80 75 79 85 97 94 93 96 93 74 79 84 90 94 97
90 92 94 92 81 65 64 71 68 61 68 73 76 81 82 76 74 81 87 92 91 97 97 99 96 94 94 93 80 82 80 86 96 96 94 86 80 79 88 85 90 94 95
92 93 93 89 87 78 80 74 75 74 74 79 82 86 90 84 83 78 81 97 97 98 96 96 96 96 92 88 89 92 94 90 94 96 94 90 86 88 89 92 92 95 96
93 95 94 94 87 80 77 74 78 79 80 82 82 84 87 92 92 78 90 95 94 96 95 97 98 97 93 91 88 91 95 96 96 97 94 89 88 88 86 87 88 89 89
94 94 92 89 81 73 77 82 85 84 86 85 85 95 97 98 95 96 93 80 77 77 71 72 78 86 77 82 86 90 92 93 92 92 94 95 95 94 91 93 89 87 90

GFSMW_sfc_rhum_021.txt.gz
RH
29 31 35 32 36 45 46 48 48 52 52 51 49 45 44 41 41 40 46 51 49 56 64 58 60 64 63 62 66 64 64 53 51 48 45 46 50 51 43 42 40 38 36
29 33 34 38 40 37 42 45 46 42 41 43 43 43 43 39 40 42 46 47 50 53 56 61 57 60 60 66 66 66 56 54 52 46 45 44 42 46 47 43 42 50 39
30 31 33 39 42 43 45 38 38 40 42 46 39 40 42 44 40 38 39 40 48 50 53 55 58 59 61 60 64 64 64 54 51 56 44 49 47 40 46 53 44 45 47
28 30 33 38 45 48 51 47 48 45 46 50 48 53 48 48 45 48 44 46 52 53 53 56 58 62 60 62 62 58 63 61 54 56 52 56 51 47 45 43 45 45 38
35 34 38 42 48 55 56 53 48 48 50 53 55 53 52 49 50 52 54 52 52 54 56 58 61 63 61 64 66 66 68 59 64 55 55 61 51 51 45 44 40 37 38
43 45 47 46 46 54 55 54 50 48 51 52 57 60 59 56 53 53 50 48 49 55 60 60 66 68 68 68 64 66 66 63 61 59 57 58 53 50 51 54 53 54 52
52 49 48 46 48 50 54 50 51 50 53 56 62 64 57 58 55 52 50 53 51 54 60 66 69 68 70 70 69 74 77 77 83 89 93 93 96 96 97 98 90 76 50
53 50 50 50 50 52 52 54 53 51 53 57 62 61 55 51 50 51 54 56 57 61 71 71 71 71 72 73 76 88 92 93 96 96 96 97 96 95 94 94 94 82 59
52 49 48 51 53 57 58 60 59 54 53 57 62 56 54 57 56 58 58 58 65 65 74 72 71 72 72 78 85 92 92 90 89 90 90 90 86 87 85 77 69 71 64
48 45 46 52 53 54 53 60 58 56 56 58 60 52 57 56 59 60 61 63 67 72 74 71 71 72 68 72 72 74 75 78 79 78 82 80 70 66 65 60 58 52 50
51 50 51 52 55 57 56 57 60 60 59 61 57 62 60 62 59 57 62 67 72 74 72 64 62 66 72 69 68 70 68 67 64 62 60 58 56 52 49 48 46 45 46
56 55 56 58 58 54 48 51 59 63 62 58 61 63 66 61 56 60 62 66 62 69 73 80 87 87 79 62 58 60 58 55 52 49 50 48 38 49 51 51 53 52 49
56 56 57 55 49 46 50 58 65 67 62 60 63 68 67 60 65 73 79 76 83 85 84 81 71 65 64 54 50 48 48 48 49 51 54 54 57 55 51 51 50 47 41
61 61 56 51 46 46 59 66 66 66 63 63 67 74 69 72 80 81 79 78 73 70 66 67 57 55 48 44 45 46 51 52 52 55 54 54 55 54 52 49 50 48 51
65 62 52 46 51 65 63 58 62 64 65 71 71 74 74 76 73 75 73 70 70 70 75 78 57 56 50 42 55 51 54 54 54 54 52 54 56 65 63 54 54 55 60
66 55 52 62 62 55 59 66 67 70 72 68 74 80 88 87 85 88 78 74 77 74 55 52 54 54 44 69 68 64 52 52 55 58 54 53 62 60 69 74 73 72 76
60 60 65 60 60 64 69 73 73 71 65 71 72 76 78 71 69 64 52 52 54 53 52 52 53 55 57 64 65 66 57 61 61 60 59 54 50 64 61 69 75 80 81
62 67 62 61 64 66 69 75 71 63 64 60 62 54 54 52 52 51 52 53 51 52 52 54 56 55 50 65 68 71 65 69 65 63 61 64 69 70 73 75 79 70 68
66 63 62 66 65 64 71 75 76 62 51 55 51 50 53 52 53 53 54 52 52 53 54 54 56 56 60 65 73 76 76 76 73 66 66 66 72 74 83 88 94 79 69
62 58 64 69 65 60 70 70 71 76 60 56 55 54 57 56 56 57 56 54 55 54 59 58 58 66 72 72 78 74 78 84 74 70 65 72 76 86 89 97 91 89 71
59 61 67 71 67 65 61 59 56 72 50 54 55 55 58 59 57 56 54 54 55 67 83 87 82 74 73 82 75 72 83 80 80 73 70 76 88 93 94 75 84 88 83
59 62 71 72 68 53 52 50 51 48 52 53 55 58 60 56 54 55 52 54 61 76 87 89 84 72 82 73 72 74 77 77 89 85 82 90 86 75 75 79 85 85 87
58 63 72 76 66 60 56 62 59 57 57 58 58 58 59 56 56 57 59 62 61 71 79 79 76 76 71 69 68 82 78 74 89 91 91 90 82 76 76 78 83 84 84
62 63 73 76 73 65 62 62 59 59 57 59 60 59 62 65 64 61 58 65 71 73 71 77 79 79 67 68 71 76 74 76 88 89 88 90 81 73 74 74 78 84 87
65 67 77 81 74 67 62 56 58 63 61 66 66 63 67 71 72 66 67 72 74 77 80 75 77 84 82 78 85 85 88 91 90 93 90 86 78 73 72 74 74 76 77
67 72 77 77 71 65 58 58 60 64 68 68 67 72 75 75 72 70 70 72 78 78 74 71 75 76 73 80 82 85 88 91 91 87 89 92 90 85 78 81 79 77 79

GFSMW_sfc_rhum_024.txt.gz
RH
22 22 26 26 26 33 36 38 37 41 37 35 35 31 31 28 27 25 31 38 37 39 44 40 41 43 46 49 49 46 52 49 43 44 38 34 35 40 34 31 30 30 32
21 24 28 32 34 35 36 35 34 33 30 26 30 33 35 30 32 33 36 35 39 40 39 44 43 44 44 49 52 55 52 48 45 47 42 41 34 34 37 34 32 38 30
22 24 28 33 35 38 36 31 33 35 38 36 30 31 30 31 29 32 31 34 39 39 40 42 44 47 47 46 49 51 54 53 48 48 49 44 43 36 31 42 37 38 37
22 25 29 35 40 42 40 36 36 34 36 41 36 42 36 36 37 38 35 36 37 38 38 41 45 49 46 49 48 43 52 53 53 48 43 50 48 46 49 43 40 38 38
31 30 33 35 37 42 43 41 35 37 38 41 44 42 43 38 38 40 42 40 36 35 34 40 48 51 48 49 55 58 58 53 54 52 52 60 52 51 60 49 47 40 36
34 33 32 32 34 41 42 40 37 35 40 43 47 51 50 46 42 40 38 33 33 32 35 38 50 53 55 56 56 59 61 60 61 60 60 63 67 65 64 59 52 54 46
36 34 34 33 36 40 41 39 37 35 36 40 40 42 42 42 41 40 37 42 37 37 42 49 53 52 58 59 64 70 74 82 86 90 92 92 95 95 96 96 92 83 67
38 35 35 37 38 41 42 42 39 37 35 36 38 40 41 39 41 42 44 43 43 44 51 55 57 57 58 62 68 73 90 90 95 96 96 96 95 94 94 95 97 96 90
37 34 34 37 38 40 43 46 40 36 36 38 42 45 44 49 49 48 48 43 48 45 55 60 58 62 69 66 66 77 77 80 80 77 78 76 80 84 87 84 84 89 80
38 36 36 39 39 39 40 44 39 38 40 42 46 45 49 49 49 49 48 50 52 56 61 68 66 71 78 80 79 78 78 73 71 68 72 70 66 65 62 63 58 56 52
40 39 39 40 40 39 37 36 39 41 44 45 48 52 52 51 47 45 48 53 59 65 66 75 84 88 89 84 77 73 66 62 59 55 52 48 42 39 37 37 38 40 38
36 37 39 39 36 36 34 39 44 44 43 43 46 50 51 50 47 50 51 55 59 72 84 91 84 68 60 64 64 55 49 47 45 44 43 41 30 40 40 37 41 40 37
34 36 37 37 36 34 40 41 37 36 38 39 43 47 49 50 52 57 62 67 68 69 67 61 56 51 49 45 43 41 43 44 43 42 42 42 43 46 43 42 40 38 31
37 40 41 38 35 40 38 32 35 41 43 46 46 48 56 60 66 64 65 62 55 54 54 57 63 65 52 44 41 41 44 44 42 46 46 45 47 48 46 42 43 38 40
42 45 44 36 39 35 34 36 44 46 47 47 45 53 63 76 83 86 71 65 56 53 53 54 46 44 42 33 49 45 45 43 42 44 42 45 49 59 60 51 49 46 44
49 50 45 41 40 37 38 44 46 49 49 47 47 56 61 60 62 61 56 47 43 40 41 42 44 45 34 67 65 62 46 43 43 46 44 43 54 50 68 70 73 69 65
54 46 42 43 40 41 41 45 49 47 48 48 46 46 46 46 45 40 38 42 44 42 43 43 44 46 46 62 64 66 50 50 50 49 46 40 34 56 54 66 72 74 77
52 43 45 42 40 37 36 43 42 47 50 48 48 43 45 42 41 42 44 44 42 44 44 45 46 47 41 62 64 69 58 56 52 50 47 50 59 61 67 71 71 71 65
52 47 41 41 41 36 37 41 42 38 46 49 52 51 46 44 43 45 45 43 44 44 44 45 48 49 52 65 68 72 67 64 62 58 60 62 69 70 81 86 89 71 64
38 45 43 41 39 36 40 40 36 37 42 45 45 42 44 45 46 43 45 44 42 43 50 55 56 61 63 66 70 68 73 86 75 69 63 70 69 83 89 94 96 90 65
40 41 42 42 39 41 41 42 36 34 35 39 43 42 43 43 41 43 42 42 45 55 83 96 77 71 70 74 70 66 81 84 79 72 68 66 95 86 77 76 80 79 80
26 32 42 41 38 41 41 39 37 32 37 42 44 44 43 40 38 44 43 45 49 64 94 88 87 72 86 64 64 65 75 79 88 83 78 84 88 79 76 76 79 81 85
34 37 38 42 43 44 42 43 39 40 44 45 44 44 42 43 44 47 49 51 51 66 80 80 76 76 65 59 62 71 74 73 84 85 84 92 85 81 78 77 76 84 90
34 34 36 39 43 43 45 44 46 46 43 47 47 45 46 51 47 45 46 53 64 75 67 72 74 73 63 60 67 73 73 73 81 85 86 88 90 90 88 80 76 86 83
34 37 43 46 45 45 46 44 44 47 50 51 52 51 52 56 54 52 53 60 63 74 76 70 71 77 78 73 76 82 82 86 85 91 89 84 83 83 76 74 73 73 75
40 43 43 43 43 42 46 43 42 46 50 54 53 56 64 63 59 56 59 67 73 73 72 70 76 75 67 71 75 78 82 87 88 85 87 91 92 88 77 77 77 81 81